Weather History for Chanute, KS

Change the Weather History Date:

Thursday, April 11, 2013

  Actual Average Record
Temperature  
Mean Temperature 41 °F 55 °F  
Max Temperature 48 °F 67 °F 91 °F (1930)
Min Temperature 33 °F 44 °F 26 °F (1957)
Degree Days  
Heating Degree Days 24 10  
Month to date heating degree days 156 129  
Since 1 July heating degree days 3954 4260  
Cooling Degree Days 0 1  
Month to date cooling degree days 1 7  
Year to date cooling degree days 2 11  
Moisture  
Dew Point 29 °F    
Average Humidity 69    
Maximum Humidity 89    
Minimum Humidity 49    
Precipitation  
Precipitation T in 0.14 in 2.55 in (1994)
Month to date precipitation 0.71 1.41  
Year to date precipitation 7.62 7.61  
Sea Level Pressure  
Sea Level Pressure 29.83 in    
Wind  
Wind Speed 12 mph (WNW)    
Max Wind Speed 21 mph    
Max Gust Speed 40 mph    
Visibility 10 miles    
Events Snow    
T = Trace of Precipitation, MM = Missing Value Source: NWS Daily Summary

Daily Weather History Graph

Daily Weather History Graph

Search for Another Location

Airport:

Trip Planner

Search our weather history database for the weather conditions in past years. The results will help you decide how hot, cold, wet, or windy it might be!

Date:

Astronomy

Apr. 11, 2013 Rise Set
Actual Time 6:52 AM CDT 7:54 PM CDT
Civil Twilight 6:25 AM CDT 8:21 PM CDT
Nautical Twilight 5:53 AM CDT 8:53 PM CDT
Astronomical Twilight 5:20 AM CDT 9:26 PM CDT
Moon 7:25 AM CDT (4/11) 9:27 PM CDT (4/11)
Length of Visible Light 13h 55m
Length of Day
13h 01m
New Moon, 2% of the Moon is Illuminated
Apr 11
New Moon
Apr 18
First Quarter
Apr 25
Full
May 2
Last Quarter
May 9
New

Hourly Weather History & Observations

Time (CDT) Temp. Windchill Dew Point Humidity Pressure Visibility Wind Dir Wind Speed Gust Speed Precip Events Conditions
12:52 AM 34.0 °F 25.0 °F 30.9 °F 89% 29.92 in 9.0 mi WNW 12.7 mph 19.6 mph N/A   Overcast
1:40 AM 33.8 °F 25.3 °F 30.2 °F 87% 29.89 in 7.0 mi WNW 11.5 mph - 0.00 in Snow Light Snow
1:52 AM 34.0 °F 25.5 °F 32.0 °F 92% 29.89 in 6.0 mi WNW 11.5 mph - 0.00 in Snow Light Snow
2:00 AM 33.8 °F 24.8 °F 32.0 °F 93% 29.86 in 9.0 mi WNW 12.7 mph - 0.00 in Snow Light Snow
2:52 AM 34.0 °F 25.5 °F 30.0 °F 85% 29.87 in 10.0 mi WNW 11.5 mph - 0.00 in   Overcast
3:19 AM 33.8 °F 25.8 °F 30.2 °F 87% 29.84 in 10.0 mi WNW 10.4 mph - N/A   Overcast
3:52 AM 34.0 °F 24.6 °F 30.0 °F 85% 29.82 in 10.0 mi NW 13.8 mph 21.9 mph N/A   Overcast
4:47 AM 33.8 °F 24.3 °F 28.4 °F 81% 29.85 in 10.0 mi West 13.8 mph - N/A   Overcast
4:52 AM 34.0 °F 26.0 °F 28.0 °F 79% 29.87 in 10.0 mi WNW 10.4 mph - N/A   Overcast
5:52 AM 33.1 °F 23.9 °F 28.0 °F 82% 29.85 in 10.0 mi WNW 12.7 mph - N/A   Overcast
6:52 AM 33.1 °F 23.4 °F 27.0 °F 78% 29.85 in 10.0 mi West 13.8 mph - N/A   Overcast
7:52 AM 33.1 °F 26.1 °F 27.0 °F 78% 29.87 in 10.0 mi West 8.1 mph - N/A   Overcast
8:52 AM 33.1 °F 23.0 °F 26.1 °F 75% 29.86 in 10.0 mi West 15.0 mph 18.4 mph N/A   Overcast
9:52 AM 33.8 °F 23.5 °F 24.8 °F 70% 29.84 in 10.0 mi WNW 16.1 mph - N/A   Overcast
10:52 AM 37.0 °F 28.1 °F 27.0 °F 67% 29.84 in 10.0 mi WNW 15.0 mph - N/A   Overcast
11:52 AM 41.0 °F 33.5 °F 27.0 °F 57% 29.84 in 10.0 mi West 13.8 mph 40.3 mph N/A   Scattered Clouds
12:52 PM 43.0 °F 35.7 °F 28.0 °F 56% 29.83 in 10.0 mi WNW 15.0 mph 21.9 mph N/A   Scattered Clouds
1:52 PM 46.0 °F 39.0 °F 28.0 °F 50% 29.81 in 10.0 mi West 17.3 mph - N/A   Scattered Clouds
2:52 PM 46.0 °F 40.6 °F 28.0 °F 50% 29.79 in 10.0 mi West 11.5 mph 21.9 mph N/A   Mostly Cloudy
3:52 PM 46.0 °F 39.9 °F 28.0 °F 50% 29.78 in 10.0 mi West 13.8 mph - N/A   Mostly Cloudy
4:52 PM 46.0 °F 39.6 °F 28.0 °F 50% 29.77 in 10.0 mi WNW 15.0 mph - N/A   Overcast
5:52 PM 46.0 °F 39.9 °F 28.9 °F 51% 29.78 in 10.0 mi WNW 13.8 mph - N/A   Overcast
6:52 PM 46.0 °F 41.4 °F 30.0 °F 54% 29.78 in 10.0 mi West 9.2 mph - N/A   Overcast
7:52 PM 43.0 °F 37.7 °F 32.0 °F 65% 29.78 in 10.0 mi South 9.2 mph - N/A   Overcast
8:52 PM 42.1 °F 35.7 °F 34.0 °F 73% 29.79 in 10.0 mi South 11.5 mph - N/A   Overcast
9:52 PM 43.0 °F 40.3 °F 34.0 °F 71% 29.82 in 10.0 mi Variable 4.6 mph - N/A   Overcast
10:52 PM 41.0 °F 36.4 °F 30.9 °F 67% 29.84 in 10.0 mi NE 6.9 mph - N/A   Overcast
11:52 PM 39.9 °F 35.8 °F 30.9 °F 70% 29.84 in 10.0 mi ENE 5.8 mph - N/A   Overcast